Tracking 20623 objects as of 4-Apr-2020
HD Live streaming from Space Station
objects crossing your sky now

ONEWEB-0044

Track ONEWEB-0044 now!
10-day predictions
ONEWEB-0044 is classified as:


NORAD ID: 45150
Int'l Code: 2020-008V
Perigee: 566.1 km
Apogee: 593.4 km
Inclination: 87.6 °
Period: 96.1 minutes
Semi major axis: 6950 km
RCS: Unknown
Launch date: February 6, 2020
Source: United Kingdom (UK)
Launch site: TYURATAM MISSILE AND SPACE COMPLEX (TTMTR)
aabbcc
Your satellite tracking list
Your tracking list is empty




NASA's NSSDC Master Catalog

Two Line Element Set (TLE):
1 45150U 20008V   20094.86650864 -.00263931 +00000-0 -23044-1 0  9993
2 45150 087.5554 144.9519 0019664 097.5355 262.8112 14.98152195008706
Source of the keplerian elements: AFSPC